Weather History for KCWA - November, 2013

Change the Weather History Date:

Tuesday, November 5, 2013

  Actual Average Record
Temperature  
Mean Temperature 36 °F -  
Max Temperature 44 °F 43 °F 62 °F (2008)
Min Temperature 28 °F 27 °F 21 °F (2012)
Degree Days  
Heating Degree Days 29    
Moisture  
Dew Point 37 °F    
Average Humidity 99    
Maximum Humidity 100    
Minimum Humidity 81    
Precipitation  
Precipitation 0.11 in - - ()
Sea Level Pressure  
Sea Level Pressure 30.11 in    
Wind  
Wind Speed 4 mph (North)    
Max Wind Speed 14 mph    
Max Gust Speed 17 mph    
Visibility 4 miles    
Events Fog , Rain , Snow    
Averages and records for this station are not official NWS values.
T = Trace of Precipitation, MM = Missing Value Source: NWS Daily Summary

Daily Weather History Graph

Daily Weather History Graph

Search for Another Location

Airport or City:

Trip Planner

Search our weather history database for the weather conditions in past years. The results will help you decide how hot, cold, wet, or windy it might be!

Date:

Astronomy

Nov. 05, 2013 Rise Set
Actual Time 6:42 AM CST 4:41 PM CST
Civil Twilight 6:11 AM CST 5:12 PM CST
Nautical Twilight 5:36 AM CST 5:47 PM CST
Astronomical Twilight 5:02 AM CST 6:21 PM CST
Moon 9:01 AM CST (11/5) 6:39 PM CST (11/5)
Length of Visible Light 11h 00m
Length of Day
9h 58m
Waxing Crescent, 7% of the Moon is Illuminated
Nov 5
Waxing Crescent
Nov 9
First Quarter
Nov 17
Full
Nov 25
Last Quarter
Dec 2
New

Hourly Weather History & Observations

Time (CST) Temp. Windchill Dew Point Humidity Pressure Visibility Wind Dir Wind Speed Gust Speed Precip Events Conditions
12:15 AM 37.4 °F 33.8 °F 37.4 °F 100% 30.14 in 10.0 mi WSW 4.6 mph - N/A   Clear
12:35 AM 37.4 °F 34.9 °F 37.4 °F 100% 30.15 in 7.0 mi WSW 3.5 mph - N/A   Clear
12:55 AM 37.4 °F 34.9 °F 37.4 °F 100% 30.16 in 7.0 mi WSW 3.5 mph - N/A   Clear
1:15 AM 37.4 °F 33.8 °F 37.4 °F 100% 30.16 in 7.0 mi West 4.6 mph - N/A   Mostly Cloudy
1:35 AM 37.4 °F - 37.4 °F 100% 30.17 in 7.0 mi Calm Calm - N/A   Mostly Cloudy
1:55 AM 37.4 °F - 37.4 °F 100% 30.17 in 5.0 mi Calm Calm - N/A   Clear
2:15 AM 35.6 °F - 35.6 °F 100% 30.17 in 3.0 mi Calm Calm - N/A   Clear
2:35 AM 35.6 °F - 35.6 °F 100% 30.17 in 3.0 mi Calm Calm - N/A   Clear
2:55 AM 35.6 °F - 35.6 °F 100% 30.18 in 0.8 mi Calm Calm - N/A   Mostly Cloudy
3:15 AM 35.6 °F - 35.6 °F 100% 30.18 in 1.8 mi Calm Calm - N/A   Mist
3:35 AM 35.6 °F 32.8 °F 35.6 °F 100% 30.18 in 0.5 mi West 3.5 mph - N/A Fog Fog
3:55 AM 33.8 °F - 33.8 °F 100% 30.18 in 0.2 mi Calm Calm - N/A Snow Light Snow
4:15 AM 32.0 °F - 32.0 °F 100% 30.19 in 0.2 mi Calm Calm - N/A Fog Light Freezing Fog
4:35 AM 32.0 °F - 32.0 °F 100% 30.19 in 0.2 mi Calm Calm - N/A Fog Light Freezing Fog
5:45 AM 30.2 °F - 30.2 °F 100% 30.22 in 0.2 mi Calm Calm - N/A Fog Light Freezing Fog
6:05 AM 30.2 °F - 30.2 °F 100% 30.22 in 0.1 mi Calm Calm - N/A Fog Light Freezing Fog
6:55 AM 28.4 °F - 28.4 °F 100% 30.23 in 0.2 mi Calm Calm - N/A Fog Light Freezing Fog
7:50 AM 30.2 °F - 30.2 °F 100% 30.24 in 0.1 mi Calm Calm - N/A Fog Light Freezing Fog
8:50 AM 32.0 °F - 32.0 °F 100% 30.24 in 0.1 mi Calm Calm - N/A Fog Fog
9:50 AM 35.6 °F - 35.6 °F 100% 30.25 in 0.1 mi Calm Calm - N/A Fog Fog
10:30 AM 37.4 °F - 37.4 °F 100% 30.26 in 0.5 mi Calm Calm - N/A Fog Fog
10:50 AM 39.2 °F - 39.2 °F 100% 30.26 in 4.0 mi Calm Calm - N/A   Mostly Cloudy
11:15 AM 39.2 °F - 39.2 °F 100% 30.24 in 7.0 mi Calm Calm - N/A   Scattered Clouds
11:50 AM 41.0 °F - 41.0 °F 100% 30.22 in 7.0 mi Calm Calm - N/A   Partly Cloudy
12:50 PM 42.8 °F - 42.8 °F 100% 30.17 in 10.0 mi Calm Calm - N/A   Clear
1:55 PM 44.6 °F - 44.6 °F 100% 30.17 in 10.0 mi Calm Calm - N/A   Mostly Cloudy
2:55 PM 44.6 °F 42.2 °F 39.2 °F 81% 30.14 in 10.0 mi North 4.6 mph - N/A Rain Light Rain
3:53 PM 42.8 °F 38.6 °F 41.0 °F 93% 30.11 in 10.0 mi NNE 6.9 mph - N/A Rain Rain
5:45 PM 42.8 °F 38.6 °F 42.8 °F 100% 30.06 in 7.0 mi NE 6.9 mph - N/A Rain Light Rain
6:45 PM 41.0 °F 35.2 °F 41.0 °F 100% 30.04 in 5.0 mi NNE 9.2 mph - N/A Rain Light Rain
7:45 PM 39.2 °F 33.6 °F 39.2 °F 100% 30.00 in 5.0 mi North 8.1 mph - N/A Rain Light Rain
8:05 PM 39.2 °F 31.6 °F 39.2 °F 100% 29.99 in 5.0 mi NNE 12.7 mph - N/A Rain Rain
8:45 PM 39.2 °F 31.6 °F 39.2 °F 100% 29.95 in 5.0 mi NE 12.7 mph - N/A Rain Rain
9:15 PM 39.2 °F 32.5 °F 39.2 °F 100% 29.94 in 5.0 mi NE 10.4 mph - N/A Rain Light Rain
9:35 PM 37.4 °F 29.3 °F 37.4 °F 100% 29.93 in 5.0 mi NNE 12.7 mph 17.3 mph 0.01 in Rain Light Rain
9:55 PM 37.4 °F 29.3 °F 37.4 °F 100% 29.92 in 5.0 mi NE 12.7 mph - 0.02 in Rain Heavy Rain
10:15 PM 37.4 °F 30.8 °F 37.4 °F 100% 29.92 in 4.0 mi NE 9.2 mph - 0.01 in Rain Light Rain
10:35 PM 37.4 °F 29.3 °F 37.4 °F 100% 29.91 in 4.0 mi NNE 12.7 mph - 0.02 in Rain Light Rain
10:55 PM 37.4 °F 30.3 °F 37.4 °F 100% 29.91 in 4.0 mi NNE 10.4 mph - 0.05 in Rain Rain
11:15 PM 37.4 °F 30.3 °F 37.4 °F 100% 29.90 in 5.0 mi North 10.4 mph - 0.02 in Rain Rain
11:35 PM 37.4 °F 28.9 °F 37.4 °F 100% 29.89 in 7.0 mi NNE 13.8 mph - 0.04 in Rain Rain
11:55 PM 37.4 °F 29.8 °F 37.4 °F 100% 29.88 in 5.0 mi NNE 11.5 mph 15.0 mph 0.04 in Rain Light Rain